Location: Detroit
(42.3310°N, 83.0460°W)
Time: 10:54:11
(UTC-05:00)

Tiros 1 despin weight - Pass Details

Date: 30 November 2023
Orbit: 581 x 624 km, 48.2° (Epoch: 01 March)

Event Time Altitude Azimuth Distance (km) Brightness Sun altitude
Rises 19:33:09 0° 218° (SW) 2,789 ? -27.5°
Reaches altitude 10° 19:35:32 10° 209° (SSW) 1,889 ? -28.0°
Enters shadow 19:37:00 19° 199° (SSW) 1,386 ? -28.2°
